| time (UTC) | temp F | wind direction | speed knots | gust knots | rain 1hr in | rain 24hr in | rain mn in | humidity % | barometer mb |
| 20260506114128 | 56 | 20 | 5.2 | 4.3 | 0.00 | 0.00 | 0.00 | ||
| 20260506113706 | 56 | 14 | 7.8 | 7.0 | 0.00 | 0.00 | 0.00 | ||
| 20260506113628 | 56 | 14 | 7.8 | 7.0 | 0.00 | 0.00 | 0.00 | ||
| 20260506113538 | 56 | 28 | 7.8 | 7.0 | 0.00 | 0.00 | 0.00 | ||
| 20260506113126 | 56 | 28 | 7.8 | 7.0 | 0.00 | 0.00 | 0.00 | ||
| 20260506112626 | 57 | 39 | 8.7 | 7.8 | 0.00 | 0.00 | 0.00 | ||
| 20260506112126 | 57 | 4 | 9.6 | 7.0 | 0.00 | 0.00 | 0.00 | ||
| 20260506111623 | 57 | 347 | 8.7 | 10.4 | 0.00 | 0.00 | 0.00 | ||
| 20260506111124 | 57 | 342 | 11.3 | 7.8 | 0.00 | 0.00 | 0.00 | ||
| 20260506110624 | 57 | 340 | 7.0 | 7.0 | 0.00 | 0.00 | 0.00 | ||
| 20260506110122 | 57 | 345 | 7.0 | 7.0 | 0.00 | 0.00 | 0.00 | ||
| 20260506105623 | 58 | 27 | 6.1 | 6.1 | 0.00 | 0.00 | 0.00 | ||
| 20260506105123 | 57 | 21 | 7.0 | 6.1 | 0.00 | 0.00 | 0.00 | ||
| 20260506104621 | 57 | 10 | 6.1 | 7.0 | 0.00 | 0.00 | 0.00 | ||
| 20260506104121 | 58 | 359 | 5.2 | 6.1 | 0.00 | 0.00 | 0.00 | ||
| 20260506103622 | 58 | 20 | 7.0 | 6.1 | 0.00 | 0.00 | 0.00 | ||
| 20260506103120 | 58 | 23 | 5.2 | 6.1 | 0.00 | 0.00 | 0.00 | ||
| 20260506102620 | 58 | 1 | 7.0 | 7.8 | 0.00 | 0.00 | 0.00 | ||
| 20260506102121 | 58 | 11 | 6.1 | 7.0 | 0.00 | 0.00 | 0.00 | ||
| 20260506101618 | 58 | 28 | 7.0 | 6.1 | 0.00 | 0.00 | 0.00 | ||
| 20260506101119 | 59 | 350 | 6.1 | 5.2 | 0.00 | 0.00 | 0.00 | ||
| 20260506100619 | 59 | 17 | 6.1 | 5.2 | 0.00 | 0.00 | 0.00 | ||
| 20260506100117 | 58 | 352 | 7.0 | 7.8 | 0.00 | 0.00 | 0.00 | ||
| 20260506095617 | 58 | 356 | 7.0 | 6.1 | 0.00 | 0.00 | 0.00 | ||
| 20260506095118 | 59 | 352 | 6.1 | 4.3 | 0.00 | 0.00 | 0.00 | ||
| 20260506094616 | 59 | 354 | 5.2 | 7.0 | 0.00 | 0.00 | 0.00 | ||
| 20260506094116 | 59 | 326 | 5.2 | 5.2 | 0.00 | 0.00 | 0.00 | ||
| 20260506093617 | 59 | 10 | 5.2 | 5.2 | 0.00 | 0.00 | 0.00 | ||
| 20260506093114 | 59 | 329 | 6.1 | 6.1 | 0.00 | 0.00 | 0.00 | ||
| 20260506092615 | 59 | 321 | 7.0 | 5.2 | 0.00 | 0.00 | 0.00 | ||
| 20260506092115 | 59 | 326 | 3.5 | 6.1 | 0.00 | 0.00 | 0.00 | ||
| 20260506091613 | 59 | 343 | 5.2 | 6.1 | 0.00 | 0.00 | 0.00 | ||
| 20260506091114 | 59 | 323 | 6.1 | 5.2 | 0.00 | 0.00 | 0.00 | ||
| 20260506090614 | 60 | 338 | 4.3 | 4.3 | 0.00 | 0.00 | 0.00 | ||
| 20260506090112 | 60 | 359 | 6.1 | 7.0 | 0.00 | 0.00 | 0.00 | ||
| 20260506085930 | 60 | 354 | 7.0 | 6.1 | 0.00 | 0.00 | 0.00 | ||
| 20260506085613 | 60 | 354 | 7.0 | 6.1 | 0.00 | 0.00 | 0.00 | ||
| 20260506085113 | 61 | 8 | 7.8 | 8.7 | 0.00 | 0.00 | 0.00 | ||
| 20260506084611 | 61 | 7 | 6.1 | 4.3 | 0.00 | 0.00 | 0.00 | ||
| 20260506084112 | 61 | 359 | 7.8 | 5.2 | 0.00 | 0.00 | 0.00 | ||
| 20260506083612 | 61 | 0 | 8.7 | 7.8 | 0.00 | 0.00 | 0.00 | ||
| 20260506083110 | 62 | 14 | 7.0 | 5.2 | 0.00 | 0.00 | 0.00 | ||
| 20260506082610 | 62 | 347 | 7.0 | 6.1 | 0.00 | 0.00 | 0.00 | ||
| 20260506082111 | 62 | 353 | 5.2 | 5.2 | 0.00 | 0.00 | 0.00 | ||
| 20260506081608 | 62 | 359 | 5.2 | 7.0 | 0.00 | 0.00 | 0.00 | ||
| 20260506081109 | 63 | 356 | 7.0 | 6.1 | 0.00 | 0.00 | 0.00 | ||
| 20260506080609 | 63 | 7 | 7.8 | 6.1 | 0.00 | 0.00 | 0.00 | ||
| 20260506080107 | 63 | 13 | 7.8 | 8.7 | 0.00 | 0.00 | 0.00 | ||
| 20260506073104 | 65 | 4 | 5.2 | 7.0 | 0.00 | 0.00 | 0.00 | ||
| 20260506072605 | 66 | 35 | 7.8 | 8.7 | 0.00 | 0.00 | 0.00 | ||
| 20260506072105 | 66 | 13 | 7.8 | 8.7 | 0.00 | 0.00 | 0.00 | ||
| 20260506071603 | 66 | 25 | 8.7 | 8.7 | 0.00 | 0.00 | 0.00 | ||
| 20260506071103 | 67 | 17 | 7.0 | 8.7 | 0.00 | 0.00 | 0.00 | ||
| 20260506070604 | 67 | 21 | 6.1 | 7.8 | 0.00 | 0.00 | 0.00 | ||
| 20260506062100 | 68 | 44 | 5.2 | 7.0 | 0.00 | 0.00 | 0.00 | ||
| 20260506061558 | 69 | 20 | 7.0 | 6.1 | 0.00 | 0.00 | 0.00 | ||
| 20260506061058 | 69 | 13 | 6.1 | 4.3 | 0.00 | 0.00 | 0.00 | ||
| 20260506060559 | 69 | 21 | 7.8 | 7.0 | 0.00 | 0.00 | 0.00 | ||
| 20260506051053 | 69 | 226 | 0.0 | 0.0 | 0.00 | 0.00 | 0.00 | ||
| 20260506050554 | 69 | 226 | 0.0 | 0.0 | 0.00 | 0.00 | 0.00 | ||
| 20260506045052 | 69 | 239 | 0.0 | 0.0 | 0.00 | 0.00 | 0.00 | ||
| 20260506044550 | 69 | 302 | 0.9 | 0.0 | 0.00 | 0.00 | 0.00 | ||
| 20260506044051 | 69 | 326 | 3.5 | 1.7 | 0.00 | 0.00 | 0.00 | ||
| 20260506043551 | 70 | 253 | 0.0 | 0.0 | 0.00 | 0.00 | 0.00 | ||
| 20260506043049 | 71 | 253 | 0.0 | 0.0 | 0.00 | 0.00 | 0.00 | ||
| 20260506042639 | 72 | 253 | 0.0 | 0.0 | 0.00 | 0.00 | 0.00 | ||
| 20260506042549 | 71 | 253 | 0.0 | 0.0 | 0.00 | 0.00 | 0.00 | ||
| 20260506042050 | 72 | 253 | 0.0 | 0.0 | 0.00 | 0.00 | 0.00 | ||
| 20260506041548 | 71 | 253 | 0.0 | 0.0 | 0.00 | 0.00 | 0.00 | ||
| 20260506041048 | 71 | 253 | 0.0 | 0.0 | 0.00 | 0.00 | 0.00 | ||
| 20260506040549 | 72 | 253 | 0.0 | 0.0 | 0.00 | 0.00 | 0.00 | ||
| 20260506040046 | 72 | 253 | 0.0 | 0.0 | 0.00 | 0.00 | 0.00 | ||
| 20260506035547 | 72 | 253 | 0.0 | 0.0 | 0.00 | 0.00 | 0.00 | ||
| 20260506035047 | 73 | 253 | 0.0 | 0.0 | 0.00 | 0.00 | 0.00 | ||
| 20260506034545 | 73 | 253 | 0.0 | 0.0 | 0.00 | 0.00 | 0.00 | ||
| 20260506034045 | 74 | 253 | 0.0 | 0.0 | 0.00 | 0.00 | 0.00 | ||
| 20260506033546 | 75 | 253 | 0.0 | 0.0 | 0.00 | 0.00 | 0.00 | ||
| 20260506033043 | 75 | 253 | 0.0 | 0.0 | 0.00 | 0.00 | 0.00 | ||
| 20260506032544 | 75 | 253 | 0.0 | 0.0 | 0.00 | 0.00 | 0.00 | ||
| 20260506032044 | 75 | 253 | 0.0 | 0.0 | 0.00 | 0.00 | 0.00 | ||
| 20260506031542 | 76 | 253 | 0.0 | 0.0 | 0.00 | 0.00 | 0.00 | ||
| 20260506031042 | 76 | 253 | 0.0 | 0.0 | 0.00 | 0.00 | 0.00 | ||
| 20260506030543 | 77 | 253 | 0.0 | 0.0 | 0.00 | 0.00 | 0.00 | ||
| 20260506030040 | 77 | 253 | 0.0 | 0.0 | 0.00 | 0.00 | 0.00 | ||
| 20260506025541 | 77 | 253 | 0.0 | 0.0 | 0.00 | 0.00 | 0.00 | ||
| 20260506025041 | 78 | 253 | 0.0 | 0.0 | 0.00 | 0.00 | 0.00 | ||
| 20260506024538 | 78 | 283 | 1.7 | 1.7 | 0.00 | 0.00 | 0.00 | ||
| 20260506024038 | 78 | 263 | 2.6 | 2.6 | 0.00 | 0.00 | 0.00 | ||
| 20260506023539 | 78 | 273 | 3.5 | 4.3 | 0.00 | 0.00 | 0.00 | ||
| 20260506023036 | 78 | 287 | 3.5 | 3.5 | 0.00 | 0.00 | 0.00 | ||
| 20260506022537 | 79 | 281 | 4.3 | 2.6 | 0.00 | 0.00 | 0.00 | ||
| 20260506022037 | 79 | 291 | 4.3 | 2.6 | 0.00 | 0.00 | 0.00 | ||
| 20260506021535 | 79 | 288 | 2.6 | 0.9 | 0.00 | 0.00 | 0.00 | ||
| 20260506021204 | 80 | 259 | 0.0 | 0.9 | 0.00 | 0.00 | 0.00 | ||
| 20260506021035 | 80 | 259 | 0.0 | 0.9 | 0.00 | 0.00 | 0.00 | ||
| 20260506020536 | 80 | 297 | 1.7 | 0.9 | 0.00 | 0.00 | 0.00 | ||
| 20260506020033 | 80 | 301 | 3.5 | 3.5 | 0.00 | 0.00 | 0.00 | ||
| 20260506015534 | 80 | 298 | 2.6 | 2.6 | 0.00 | 0.00 | 0.00 | ||
| 20260506015034 | 80 | 291 | 2.6 | 3.5 | 0.00 | 0.00 | 0.00 | ||
| 20260506014532 | 81 | 293 | 3.5 | 2.6 | 0.00 | 0.00 | 0.00 | ||
| 20260506014032 | 82 | 290 | 3.5 | 2.6 | 0.00 | 0.00 | 0.00 | ||
| 20260506013533 | 82 | 294 | 4.3 | 3.5 | 0.00 | 0.00 | 0.00 | ||
| 20260506013030 | 82 | 284 | 4.3 | 5.2 | 0.00 | 0.00 | 0.00 | ||
| 20260506012531 | 83 | 281 | 5.2 | 4.3 | 0.00 | 0.00 | 0.00 | ||
| 20260506012031 | 83 | 283 | 6.1 | 5.2 | 0.00 | 0.00 | 0.00 | ||
| 20260506011529 | 84 | 280 | 4.3 | 6.1 | 0.00 | 0.00 | 0.00 | ||
| 20260506011029 | 85 | 277 | 4.3 | 3.5 | 0.00 | 0.00 | 0.00 | ||
| 20260506010529 | 85 | 304 | 5.2 | 3.5 | 0.00 | 0.00 | 0.00 | ||
| 20260506010027 | 86 | 290 | 7.0 | 6.1 | 0.00 | 0.00 | 0.00 | ||
| 20260506005527 | 87 | 285 | 4.3 | 7.0 | 0.00 | 0.00 | 0.00 | ||
| 20260506005028 | 87 | 266 | 5.2 | 7.8 | 0.00 | 0.00 | 0.00 | ||
| 20260506004525 | 87 | 293 | 6.1 | 3.5 | 0.00 | 0.00 | 0.00 | ||
| 20260506004026 | 88 | 243 | 5.2 | 7.0 | 0.00 | 0.00 | 0.00 | ||
| 20260506003526 | 89 | 271 | 6.1 | 5.2 | 0.00 | 0.00 | 0.00 | ||
| 20260506003023 | 89 | 321 | 2.6 | 1.7 | 0.00 | 0.00 | 0.00 | ||
| 20260506002524 | 89 | 238 | 0.9 | 1.7 | 0.00 | 0.00 | 0.00 | ||
| 20260506002024 | 90 | 231 | 0.9 | 0.0 | 0.00 | 0.00 | 0.00 | ||
| 20260506001522 | 90 | 211 | 2.6 | 2.6 | 0.00 | 0.00 | 0.00 | ||
| 20260506001022 | 90 | 246 | 1.7 | 2.6 | 0.00 | 0.00 | 0.00 | ||
| 20260506000522 | 89 | 238 | 2.6 | 2.6 | 0.00 | 0.00 | 0.00 | ||
| 20260506000020 | 89 | 240 | 2.6 | 1.7 | 0.00 | 0.00 | 0.00 | ||
| 20260505235520 | 89 | 231 | 3.5 | 6.1 | 0.00 | 0.00 | 0.00 | ||
| 20260505235021 | 89 | 229 | 3.5 | 3.5 | 0.00 | 0.00 | 0.00 | ||
| 20260505234518 | 90 | 228 | 4.3 | 2.6 | 0.00 | 0.00 | 0.00 | ||
| 20260505234018 | 90 | 228 | 3.5 | 5.2 | 0.00 | 0.00 | 0.00 | ||
| 20260505233519 | 90 | 215 | 5.2 | 7.0 | 0.00 | 0.00 | 0.00 | ||
| 20260505233016 | 90 | 224 | 3.5 | 2.6 | 0.00 | 0.00 | 0.00 | ||
| 20260505232516 | 90 | 249 | 6.1 | 5.2 | 0.00 | 0.00 | 0.00 | ||
| 20260505232017 | 91 | 229 | 7.0 | 7.0 | 0.00 | 0.00 | 0.00 | ||
| 20260505231514 | 91 | 238 | 4.3 | 2.6 | 0.00 | 0.00 | 0.00 | ||
| 20260505231100 | 92 | 214 | 6.1 | 3.5 | 0.00 | 0.00 | 0.00 | ||
| 20260505231014 | 92 | 214 | 6.1 | 3.5 | 0.00 | 0.00 | 0.00 | ||
| 20260505230515 | 93 | 229 | 6.1 | 7.0 | 0.00 | 0.00 | 0.00 | ||
| 20260505230012 | 92 | 226 | 6.1 | 5.2 | 0.00 | 0.00 | 0.00 | ||
| 20260505225513 | 92 | 255 | 6.1 | 3.5 | 0.00 | 0.00 | 0.00 | ||
| 20260505225013 | 93 | 229 | 6.1 | 5.2 | 0.00 | 0.00 | 0.00 | ||
| 20260505224510 | 94 | 218 | 7.0 | 7.8 | 0.00 | 0.00 | 0.00 | ||
| 20260505224011 | 94 | 205 | 3.5 | 3.5 | 0.00 | 0.00 | 0.00 | ||
| 20260505223511 | 94 | 243 | 6.1 | 7.8 | 0.00 | 0.00 | 0.00 | ||
| 20260505223008 | 93 | 252 | 5.2 | 7.8 | 0.00 | 0.00 | 0.00 | ||
| 20260505222509 | 94 | 231 | 7.0 | 6.1 | 0.00 | 0.00 | 0.00 | ||
| 20260505222009 | 93 | 235 | 7.0 | 5.2 | 0.00 | 0.00 | 0.00 | ||
| 20260505221505 | 93 | 221 | 6.1 | 5.2 | 0.00 | 0.00 | 0.00 | ||
| 20260505221005 | 92 | 246 | 7.0 | 7.0 | 0.00 | 0.00 | 0.00 | ||
| 20260505220505 | 94 | 214 | 7.0 | 3.5 | 0.00 | 0.00 | 0.00 | ||
| 20260505220003 | 94 | 232 | 5.2 | 7.0 | 0.00 | 0.00 | 0.00 | ||
| 20260505215503 | 92 | 242 | 7.8 | 6.1 | 0.00 | 0.00 | 0.00 | ||
| 20260505215003 | 94 | 242 | 6.1 | 5.2 | 0.00 | 0.00 | 0.00 | ||
| 20260505214501 | 94 | 222 | 3.5 | 4.3 | 0.00 | 0.00 | 0.00 | ||
| 20260505214001 | 92 | 203 | 4.3 | 3.5 | 0.00 | 0.00 | 0.00 | ||
| 20260505213501 | 93 | 257 | 7.0 | 6.1 | 0.00 | 0.00 | 0.00 | ||
| 20260505213409 | 93 | 221 | 7.8 | 8.7 | 0.00 | 0.00 | 0.00 | ||
| 20260505212958 | 93 | 221 | 7.8 | 8.7 | 0.00 | 0.00 | 0.00 | ||
| 20260505212458 | 94 | 252 | 7.8 | 7.0 | 0.00 | 0.00 | 0.00 | ||
| 20260505211958 | 94 | 242 | 7.8 | 9.6 | 0.00 | 0.00 | 0.00 | ||
| 20260505211456 | 94 | 285 | 7.0 | 5.2 | 0.00 | 0.00 | 0.00 | ||
| 20260505210956 | 93 | 269 | 5.2 | 3.5 | 0.00 | 0.00 | 0.00 | ||
| 20260505210456 | 94 | 277 | 8.7 | 8.7 | 0.00 | 0.00 | 0.00 | ||
| 20260505205954 | 95 | 295 | 7.0 | 7.0 | 0.00 | 0.00 | 0.00 | ||
| 20260505205454 | 94 | 284 | 8.7 | 7.8 | 0.00 | 0.00 | 0.00 | ||
| 20260505204954 | 94 | 215 | 7.8 | 8.7 | 0.00 | 0.00 | 0.00 | ||
| 20260505204452 | 95 | 269 | 9.6 | 7.0 | 0.00 | 0.00 | 0.00 | ||
| 20260505203952 | 96 | 293 | 6.1 | 7.8 | 0.00 | 0.00 | 0.00 | ||
| 20260505203452 | 95 | 239 | 3.5 | 7.8 | 0.00 | 0.00 | 0.00 | ||
| 20260505202950 | 95 | 281 | 4.3 | 9.6 | 0.00 | 0.00 | 0.00 | ||
| 20260505202450 | 94 | 257 | 5.2 | 6.1 | 0.00 | 0.00 | 0.00 | ||
| 20260505201950 | 95 | 264 | 5.2 | 9.6 | 0.00 | 0.00 | 0.00 | ||
| 20260505201447 | 94 | 300 | 5.2 | 4.3 | 0.00 | 0.00 | 0.00 | ||
| 20260505200948 | 94 | 252 | 5.2 | 8.7 | 0.00 | 0.00 | 0.00 | ||
| 20260505200448 | 93 | 238 | 7.0 | 8.7 | 0.00 | 0.00 | 0.00 | ||
| 20260505195946 | 94 | 264 | 7.0 | 7.0 | 0.00 | 0.00 | 0.00 | ||
| 20260505195446 | 95 | 246 | 4.3 | 5.2 | 0.00 | 0.00 | 0.00 | ||
| 20260505194946 | 94 | 253 | 6.1 | 7.0 | 0.00 | 0.00 | 0.00 | ||
| 20260505194442 | 94 | 238 | 7.8 | 6.1 | 0.00 | 0.00 | 0.00 | ||
| 20260505193942 | 95 | 233 | 6.1 | 6.1 | 0.00 | 0.00 | 0.00 | ||
| 20260505193442 | 94 | 288 | 6.1 | 3.5 | 0.00 | 0.00 | 0.00 | ||
| 20260505193313 | 93 | 260 | 6.1 | 6.1 | 0.00 | 0.00 | 0.00 | ||
| 20260505192940 | 93 | 273 | 5.2 | 1.7 | 0.00 | 0.00 | 0.00 | ||
| 20260505192440 | 93 | 260 | 6.1 | 6.1 | 0.00 | 0.00 | 0.00 | ||
| 20260505191940 | 93 | 270 | 6.1 | 6.1 | 0.00 | 0.00 | 0.00 | ||
| 20260505191438 | 93 | 242 | 4.3 | 7.0 | 0.00 | 0.00 | 0.00 | ||
| 20260505190938 | 93 | 260 | 6.1 | 6.1 | 0.00 | 0.00 | 0.00 | ||
| 20260505190438 | 93 | 255 | 8.7 | 5.2 | 0.00 | 0.00 | 0.00 | ||
| 20260505185936 | 93 | 284 | 5.2 | 10.4 | 0.00 | 0.00 | 0.00 | ||
| 20260505185436 | 93 | 263 | 4.3 | 8.7 | 0.00 | 0.00 | 0.00 | ||
| 20260505184936 | 92 | 250 | 7.8 | 7.0 | 0.00 | 0.00 | 0.00 | ||
| 20260505184434 | 91 | 246 | 7.8 | 7.8 | 0.00 | 0.00 | 0.00 | ||
| 20260505183934 | 91 | 232 | 7.0 | 3.5 | 0.00 | 0.00 | 0.00 | ||
| 20260505183434 | 92 | 284 | 7.8 | 7.0 | 0.00 | 0.00 | 0.00 | ||
| 20260505182932 | 91 | 264 | 6.1 | 5.2 | 0.00 | 0.00 | 0.00 | ||
| 20260505182432 | 90 | 290 | 7.8 | 4.3 | 0.00 | 0.00 | 0.00 | ||
| 20260505181933 | 91 | 270 | 8.7 | 6.1 | 0.00 | 0.00 | 0.00 | ||
| 20260505181430 | 91 | 253 | 7.8 | 5.2 | 0.00 | 0.00 | 0.00 | ||
| 20260505180930 | 91 | 242 | 7.0 | 7.0 | 0.00 | 0.00 | 0.00 | ||
| 20260505180431 | 90 | 239 | 6.1 | 7.0 | 0.00 | 0.00 | 0.00 | ||
| 20260505175928 | 91 | 249 | 7.8 | 7.0 | 0.00 | 0.00 | 0.00 | ||
| 20260505175429 | 91 | 285 | 9.6 | 7.0 | 0.00 | 0.00 | 0.00 | ||
| 20260505174929 | 91 | 271 | 5.2 | 4.3 | 0.00 | 0.00 | 0.00 | ||
| 20260505174426 | 90 | 224 | 6.1 | 8.7 | 0.00 | 0.00 | 0.00 | ||
| 20260505173926 | 90 | 248 | 8.7 | 6.1 | 0.00 | 0.00 | 0.00 | ||
| 20260505173427 | 90 | 281 | 6.1 | 7.0 | 0.00 | 0.00 | 0.00 | ||
| 20260505172924 | 90 | 243 | 6.1 | 5.2 | 0.00 | 0.00 | 0.00 | ||
| 20260505172425 | 90 | 245 | 2.6 | 2.6 | 0.00 | 0.00 | 0.00 | ||
| 20260505171925 | 89 | 203 | 5.2 | 6.1 | 0.00 | 0.00 | 0.00 | ||
| 20260505171422 | 89 | 165 | 4.3 | 3.5 | 0.00 | 0.00 | 0.00 | ||
| 20260505170923 | 88 | 191 | 5.2 | 3.5 | 0.00 | 0.00 | 0.00 | ||
| 20260505170423 | 87 | 232 | 5.2 | 4.3 | 0.00 | 0.00 | 0.00 | ||
| 20260505165920 | 87 | 253 | 4.3 | 4.3 | 0.00 | 0.00 | 0.00 | ||
| 20260505165534 | 85 | 236 | 7.0 | 6.1 | 0.00 | 0.00 | 0.00 | ||
| 20260505165421 | 85 | 236 | 7.0 | 6.1 | 0.00 | 0.00 | 0.00 | ||
| 20260505164921 | 84 | 211 | 7.0 | 5.2 | 0.00 | 0.00 | 0.00 | ||
| 20260505164519 | 84 | 203 | 8.7 | 8.7 | 0.00 | 0.00 | 0.00 | ||
| 20260505164419 | 84 | 203 | 8.7 | 8.7 | 0.00 | 0.00 | 0.00 | ||
| 20260505163919 | 83 | 222 | 7.0 | 9.6 | 0.00 | 0.00 | 0.00 | ||
| 20260505163420 | 83 | 232 | 10.4 | 7.8 | 0.00 | 0.00 | 0.00 | ||
| 20260505162917 | 83 | 205 | 6.1 | 10.4 | 0.00 | 0.00 | 0.00 | ||
| 20260505162417 | 82 | 197 | 7.8 | 5.2 | 0.00 | 0.00 | 0.00 | ||
| 20260505161918 | 82 | 197 | 7.0 | 7.0 | 0.00 | 0.00 | 0.00 | ||
| 20260505161415 | 80 | 225 | 9.6 | 8.7 | 0.00 | 0.00 | 0.00 | ||
| 20260505160915 | 80 | 194 | 9.6 | 8.7 | 0.00 | 0.00 | 0.00 | ||
| 20260505160415 | 80 | 218 | 9.6 | 7.8 | 0.00 | 0.00 | 0.00 | ||
| 20260505152908 | 79 | 198 | 7.8 | 7.0 | 0.00 | 0.00 | 0.00 | ||
| 20260505152408 | 79 | 180 | 6.1 | 5.2 | 0.00 | 0.00 | 0.00 | ||
| 20260505151909 | 79 | 198 | 5.2 | 7.8 | 0.00 | 0.00 | 0.00 | ||
| 20260505151406 | 78 | 195 | 7.0 | 7.0 | 0.00 | 0.00 | 0.00 | ||
| 20260505150407 | 77 | 172 | 7.0 | 7.0 | 0.00 | 0.00 | 0.00 | ||
| 20260505140358 | 73 | 193 | 8.7 | 12.2 | 0.00 | 0.00 | 0.00 | ||
| 20260505124847 | 69 | 225 | 6.1 | 6.1 | 0.00 | 0.00 | 0.00 | ||
| 20260505124421 | 69 | 191 | 6.1 | 7.8 | 0.00 | 0.00 | 0.00 | ||
| 20260505124345 | 69 | 191 | 6.1 | 7.8 | 0.00 | 0.00 | 0.00 | ||
| 20260505123845 | 68 | 191 | 7.0 | 11.3 | 0.00 | 0.00 | 0.00 | ||
| 20260505123346 | 68 | 203 | 7.8 | 7.8 | 0.00 | 0.00 | 0.00 | ||
| 20260505122843 | 68 | 210 | 7.0 | 5.2 | 0.00 | 0.00 | 0.00 | ||
| 20260505122344 | 68 | 197 | 7.0 | 7.8 | 0.00 | 0.00 | 0.00 | ||
| 20260505121844 | 68 | 200 | 9.6 | 9.6 | 0.00 | 0.00 | 0.00 | ||
| 20260505121340 | 68 | 208 | 9.6 | 7.0 | 0.00 | 0.00 | 0.00 | ||
| 20260505120923 | 68 | 188 | 10.4 | 13.0 | 0.00 | 0.00 | 0.00 | ||
| 20260505120840 | 68 | 188 | 10.4 | 13.0 | 0.00 | 0.00 | 0.00 | ||
| 20260505120341 | 67 | 204 | 9.6 | 8.7 | 0.00 | 0.00 | 0.00 | ||
| 20260505115847 | 68 | 188 | 9.6 | 7.8 | 0.00 | 0.00 | 0.00 | ||
| 20260505115838 | 68 | 188 | 9.6 | 7.8 | 0.00 | 0.00 | 0.00 | ||
| 20260505115434 | 68 | 183 | 10.4 | 7.8 | 0.00 | 0.00 | 0.00 | ||
| 20260505115339 | 68 | 183 | 10.4 | 7.8 | 0.00 | 0.00 | 0.00 | ||
| 20260505114839 | 67 | 224 | 8.7 | 11.3 | 0.00 | 0.00 | 0.00 |